Location: Bambrugge
(50.9212°N, 3.9299°E)
Time: 19:46:57
(UTC+00:00)

SL-16 R/B - Pass Details

Date: 17 August 2024
Orbit: 842 x 845 km, 71.0° (Epoch: 10 September)

Event Time Altitude Azimuth Distance (km) Brightness Sun altitude
Exits shadow 00:57:44 - 273° (W) 2,672 4.6 -24.0°
Reaches altitude 10° 00:58:29 10° 279° (W) 2,469 4.5 -24.0°
Maximum altitude 01:02:35 20° 325° (NW) 1,861 4.3 -23.8°
Drops below altitude 10° 01:06:43 10° 12° (NNE) 2,478 5.7 -23.5°
Sets 01:09:52 0° 29° (NNE) 3,416 6.8 -23.4°
